パンスターズ彗星

P/2023 T1 ( PanSTARRS )

English version
Home page
Updated on May 13, 2024

---------------------------------------------------------------------

・ プロフィール

発見日 2023年10月9日
発見光度 20.4等
発見者 Pan-STARRS 2 telescope (Haleakala)

・ 写真集

・ 軌道要素

Epoch 2023 Sept. 13.0 TT = JDT 2460200.5
T 2024 May 22.93380 TT                                  Rudenko
q   2.8164408            (2000.0)            P               Q
n   0.11293447     Peri.  202.87582     -0.04078730     -0.99333827
a   4.2388858      Node   249.60036     +0.93358116     +0.00054831
e   0.3355705      Incl.    6.60285     +0.35603738     -0.11523362
P   8.73
>From 117 observations 2023 July 16-2024 Jan. 11, mean residual 0".4.

・ 光度変化

        m1 = 13.5 + 5 logΔ + 10.0 log r

---------------------------------------------------------------------

軌道要素はM.P.E.C. 2024-B140に掲載されたものです。
光度グラフはComet for Windowsで作成したものです。

---------------------------------------------------------------------

Copyright(C) Seiichi Yoshida (comet@aerith.net). All rights reserved.